Wind_Speed
9 9 12 26 30 37 25 19 16 15 20 26 26 25 26 24 20 18 20 21 21 21
23 28 28 30 27 19 19 19 16 19 26 28 25 24 23 23 22 22 20 21 22 22
30 33 37 35 29 23 23 19 18 23 28 24 21 21 19 21 21 22 24 26 24 23
29 32 32 26 21 24 22 24 25 25 24 22 20 18 19 21 23 24 26 21 17 19
26 29 32 29 29 34 27 26 15 23 24 21 19 22 22 23 26 26 25 26 26 30
32 28 30 30 28 18 13 14 20 15 18 17 21 22 23 24 24 23 23 27 29 32
37 32 25 24 18 19 31 17 12 16 15 21 21 22 24 23 24 24 25 28 34 34
35 31 29 27 29 25 16 10 8 13 18 19 21 22 22 25 23 26 33 33 28 30
32 33 31 31 27 16 12 8 10 17 19 21 20 22 20 23 29 30 29 30 29 26
35 36 31 25 16 18 12 18 12 17 19 18 19 19 25 29 29 29 28 28 28 26
33 33 26 20 23 19 13 12 14 16 17 16 21 25 28 28 27 27 28 27 27 28
30 29 21 17 17 13 17 10 14 15 15 19 23 28 29 28 28 26 26 28 28 22
31 23 20 16 17 13 8 15 13 13 15 20 25 28 27 26 27 27 28 25 22 19
27 19 14 11 8 11 16 14 11 12 18 23 26 25 24 26 22 20 22 22 19 16
Wind_Direction
263 275 310 322 316 311 302 286 281 286 309 319 321 313 308 311 323 327 327 323 319 314
324 320 317 319 326 306 283 281 268 297 323 322 322 319 321 322 328 328 329 329 326 323
334 326 329 324 315 298 288 267 289 313 323 333 328 324 318 321 331 326 324 324 321 319
334 324 322 310 292 281 279 294 302 313 320 329 325 319 317 322 326 322 320 315 308 305
334 325 317 302 291 295 292 288 303 322 312 325 315 319 317 319 322 320 313 309 304 305
328 322 317 300 296 274 264 268 309 312 310 314 315 315 312 320 317 308 303 302 305 309
329 333 329 303 270 272 296 316 315 295 304 319 315 312 312 316 312 300 301 308 312 314
333 335 334 325 317 311 313 323 282 299 315 314 311 313 311 309 305 310 312 315 315 315
336 336 334 329 318 294 304 266 262 303 309 317 312 313 308 312 315 319 319 320 317 317
335 336 333 330 314 305 290 290 315 304 318 311 312 313 319 323 322 321 320 319 317 318
333 334 329 310 309 289 300 314 302 315 308 307 315 325 327 322 319 320 318 316 320 319
333 332 327 322 333 327 315 294 308 306 300 315 324 328 327 322 322 322 318 318 321 324
330 325 315 311 312 314 302 308 313 302 315 326 331 333 331 333 326 325 329 333 333 331
321 317 318 321 333 308 311 304 303 317 329 333 336 338 338 335 330 336 332 338 342 344
Height
1547 1545 1543 1541 1535 1535 1528 1528 1521 1522 1519 1517 1514 1511 1508 1504 1501 1501 1499 1496 1493 1489
1547 1543 1538 1536 1528 1526 1523 1522 1518 1517 1515 1511 1508 1507 1505 1502 1496 1494 1494 1491 1488 1486
1541 1537 1532 1529 1526 1523 1520 1516 1513 1514 1512 1504 1502 1501 1500 1498 1492 1491 1489 1486 1484 1482
1538 1534 1529 1524 1521 1519 1516 1514 1509 1507 1504 1500 1497 1495 1493 1491 1487 1485 1483 1481 1478 1477
1534 1531 1526 1521 1517 1514 1510 1508 1504 1502 1501 1497 1497 1494 1488 1485 1482 1479 1477 1475 1473 1470
1528 1525 1521 1516 1511 1508 1506 1501 1500 1496 1497 1494 1492 1490 1485 1480 1477 1475 1472 1469 1465 1461
1522 1518 1513 1511 1507 1503 1500 1496 1497 1496 1493 1490 1488 1485 1481 1476 1473 1469 1466 1462 1458 1454
1518 1514 1511 1508 1503 1498 1496 1491 1489 1492 1489 1485 1484 1481 1477 1471 1467 1464 1459 1455 1451 1447
1514 1509 1505 1500 1496 1494 1491 1488 1485 1487 1484 1481 1478 1475 1471 1467 1462 1457 1452 1447 1443 1440
1508 1503 1499 1495 1492 1489 1488 1485 1484 1482 1479 1477 1474 1470 1466 1461 1455 1450 1446 1441 1437 1432
1503 1498 1494 1491 1488 1485 1484 1483 1481 1478 1476 1472 1469 1464 1459 1455 1450 1445 1440 1436 1431 1427
1498 1494 1490 1487 1484 1482 1480 1479 1477 1475 1472 1469 1464 1459 1454 1449 1444 1439 1434 1430 1425 1421
1493 1490 1486 1483 1481 1479 1477 1476 1473 1470 1468 1464 1460 1455 1449 1444 1438 1433 1428 1424 1420 1416
1488 1485 1482 1479 1477 1476 1475 1472 1470 1467 1464 1460 1455 1451 1446 1440 1434 1429 1425 1420 1416 1413